Weather History for Ann Arbor, MI

Change the Weather History Date:

Tuesday, January 21, 2014

  Actual Average Record
Temperature  
Mean Temperature 2 °F -  
Max Temperature 12 °F 26 °F 37 °F (2006)
Min Temperature -13 °F 8 °F -13 °F (2014)
Degree Days  
Heating Degree Days 64    
Moisture  
Dew Point -6 °F    
Average Humidity 61    
Maximum Humidity 86    
Minimum Humidity 51    
Precipitation  
Precipitation 0.00 in - - ()
Sea Level Pressure  
Sea Level Pressure 30.16 in    
Wind  
Wind Speed 11 mph (North)    
Max Wind Speed 16 mph    
Max Gust Speed 20 mph    
Visibility 10 miles    
Events Snow    
Averages and records for this station are not official NWS values.
T = Trace of Precipitation, MM = Missing Value Source: NWS Daily Summary

Daily Weather History Graph

Daily Weather History Graph

Search for Another Location

Airport:

Trip Planner

Search our weather history database for the weather conditions in past years. The results will help you decide how hot, cold, wet, or windy it might be!

Date:

Astronomy

Jan. 21, 2014 Rise Set
Actual Time 7:57 AM EST 5:35 PM EST
Civil Twilight 7:27 AM EST 6:05 PM EST
Nautical Twilight 6:52 AM EST 6:40 PM EST
Astronomical Twilight 6:19 AM EST 7:13 PM EST
Moon 11:14 PM EST (1/21) 10:20 AM EST (1/21)
Length of Visible Light 10h 38m
Length of Day
9h 37m
Waning Gibbous, 75% of the Moon is Illuminated
Jan 21
Waning Gibbous
Jan 24
Last Quarter
Jan 30
New
Feb 6
First Quarter
Feb 14
Full

Hourly Weather History & Observations

Time (EST) Temp. Windchill Dew Point Humidity Pressure Visibility Wind Dir Wind Speed Gust Speed Precip Events Conditions
12:39 AM 12.2 °F -1.8 °F 5.0 °F 73% 30.02 in 5.0 mi NNE 11.5 mph - 0.00 in Snow Light Snow
12:46 AM 10.4 °F -5.4 °F 3.2 °F 73% 30.02 in 8.0 mi NNE 13.8 mph - 0.00 in Snow Light Snow
12:53 AM 10.9 °F -5.4 °F 1.9 °F 67% 30.07 in 9.0 mi NNE 15.0 mph - 0.00 in   Overcast
1:53 AM 9.0 °F -5.1 °F -2.0 °F 61% 30.06 in 10.0 mi North 10.4 mph - N/A   Overcast
2:53 AM 8.1 °F -7.0 °F -5.1 °F 55% 30.08 in 10.0 mi NNE 11.5 mph - N/A   Overcast
3:53 AM 7.0 °F -6.6 °F -6.0 °F 55% 30.11 in 10.0 mi NNE 9.2 mph - N/A   Overcast
4:53 AM 6.1 °F -9.5 °F -4.0 °F 63% 30.11 in 10.0 mi North 11.5 mph - N/A   Overcast
5:53 AM 5.0 °F -10.8 °F -6.0 °F 61% 30.11 in 10.0 mi North 11.5 mph - N/A   Mostly Cloudy
6:53 AM 3.9 °F -10.4 °F -7.1 °F 60% 30.13 in 10.0 mi North 9.2 mph - N/A   Mostly Cloudy
7:53 AM 3.0 °F -14.1 °F -8.0 °F 60% 30.15 in 10.0 mi North 12.7 mph 19.6 mph N/A   Mostly Cloudy
8:53 AM 3.0 °F -13.3 °F -7.1 °F 63% 30.17 in 10.0 mi North 11.5 mph - N/A   Overcast
9:53 AM 3.9 °F -13.7 °F -7.1 °F 60% 30.19 in 10.0 mi North 13.8 mph - N/A   Partly Cloudy
10:53 AM 6.1 °F -12.2 °F -5.1 °F 60% 30.20 in 10.0 mi North 16.1 mph 19.6 mph N/A   Clear
11:53 AM 8.1 °F -6.2 °F -4.0 °F 58% 30.20 in 10.0 mi North 10.4 mph - N/A   Clear
12:53 PM 10.0 °F -5.2 °F -2.9 °F 56% 30.19 in 10.0 mi North 12.7 mph - N/A   Clear
1:53 PM 10.9 °F -4.1 °F -2.9 °F 54% 30.17 in 10.0 mi North 12.7 mph - N/A   Clear
2:53 PM 10.0 °F -2.9 °F -5.1 °F 51% 30.17 in 10.0 mi North 9.2 mph - N/A   Clear
3:53 PM 10.0 °F -3.7 °F -5.1 °F 51% 30.18 in 10.0 mi North 10.4 mph - N/A   Clear
4:53 PM 9.0 °F -4.2 °F -6.0 °F 51% 30.20 in 10.0 mi NNE 9.2 mph - N/A   Clear
5:53 PM 7.0 °F -8.3 °F -7.1 °F 53% 30.23 in 10.0 mi NNW 11.5 mph - N/A   Clear
6:53 PM 5.0 °F -6.9 °F -8.0 °F 55% 30.24 in 10.0 mi NNW 6.9 mph - N/A   Clear
7:53 PM 3.9 °F -5.3 °F -8.0 °F 58% 30.24 in 10.0 mi North 4.6 mph - N/A   Clear
8:53 PM 3.0 °F -4.4 °F -8.0 °F 60% 30.22 in 10.0 mi North 3.5 mph - N/A   Clear
9:53 PM -5.1 °F -13.6 °F -11.9 °F 72% 30.23 in 10.0 mi WSW 3.5 mph - N/A   Clear
10:53 PM -9.0 °F -18.2 °F -14.1 °F 79% 30.23 in 10.0 mi West 3.5 mph - N/A   Clear
11:53 PM -13.0 °F -22.7 °F -16.1 °F 86% 30.24 in 10.0 mi West 3.5 mph - N/A   Clear